Weather History for Crystal River, FL

Change the Weather History Date:

Friday, March 22, 2013

  Actual Average (KBKV) Record (KBKV)
Temperature  
Mean Temperature 57 °F -  
Max Temperature 77 °F 75 °F 87 °F (2005)
Min Temperature 37 °F 50 °F 37 °F (1999)
Degree Days  
Heating Degree Days 8    
Growing Degree Days 7 (Base 50)    
Moisture  
Dew Point 41 °F    
Average Humidity 60    
Maximum Humidity 100    
Minimum Humidity 22    
Precipitation  
Precipitation 0.00 in - - ()
Sea Level Pressure  
Sea Level Pressure 29.97 in    
Wind  
Wind Speed 2 mph (East)    
Max Wind Speed 13 mph    
Max Gust Speed 17 mph    
Visibility 10 miles    
Events Rain    
Averages and records for this station are not official NWS values.
T = Trace of Precipitation, MM = Missing Value Source: NWS Daily Summary

Daily Weather History Graph

Daily Weather History Graph

Search for Another Location

Airport:

Trip Planner

Search our weather history database for the weather conditions in past years. The results will help you decide how hot, cold, wet, or windy it might be!

Date:

Astronomy

Mar. 22, 2013 Rise Set
Actual Time 7:31 AM EDT 7:42 PM EDT
Civil Twilight 7:07 AM EDT 8:06 PM EDT
Nautical Twilight 6:40 AM EDT 8:34 PM EDT
Astronomical Twilight 6:12 AM EDT 9:02 PM EDT
Moon 3:27 PM EDT (3/22) 4:11 AM EDT (3/22)
Length of Visible Light 12h 58m
Length of Day
12h 11m
Waxing Gibbous, 77% of the Moon is Illuminated
Mar 22
Waxing Gibbous
Mar 27
Full
Apr 3
Last Quarter
Apr 10
New
Apr 18
First Quarter

Hourly Weather History & Observations

Time (EDT) Temp. Windchill Dew Point Humidity Pressure Visibility Wind Dir Wind Speed Gust Speed Precip Events Conditions
12:15 AM 41.0 °F - 37.4 °F 87% 29.98 in 10.0 mi Calm Calm - N/A   Clear
12:35 AM 41.0 °F - 37.4 °F 87% 29.97 in 10.0 mi Calm Calm - N/A   Clear
12:55 AM 41.0 °F - 37.4 °F 87% 29.97 in 10.0 mi Calm Calm - N/A   Clear
1:15 AM 39.2 °F - 37.4 °F 93% 29.96 in 10.0 mi Calm Calm - N/A   Clear
1:35 AM 41.0 °F - 37.4 °F 87% 29.96 in 10.0 mi Calm Calm - N/A   Clear
1:55 AM 41.0 °F - 37.4 °F 87% 29.96 in 10.0 mi Calm Calm - N/A   Clear
2:15 AM 39.2 °F - 37.4 °F 93% 29.95 in 10.0 mi Calm Calm - N/A   Clear
2:35 AM 41.0 °F - 37.4 °F 87% 29.94 in 10.0 mi Calm Calm - N/A   Clear
2:55 AM 37.4 °F - 37.4 °F 100% 29.95 in 10.0 mi Calm Calm - N/A   Clear
3:15 AM 37.4 °F - 35.6 °F 93% 29.95 in 10.0 mi Calm Calm - N/A   Clear
3:35 AM 37.4 °F - 35.6 °F 93% 29.94 in 10.0 mi Calm Calm - N/A   Clear
3:55 AM 39.2 °F - 35.6 °F 87% 29.94 in 10.0 mi Calm Calm - N/A   Clear
4:15 AM 39.2 °F - 37.4 °F 93% 29.94 in 10.0 mi Calm Calm - N/A   Clear
4:35 AM 41.0 °F - 37.4 °F 87% 29.94 in 10.0 mi Calm Calm - N/A   Mostly Cloudy
4:55 AM 41.0 °F - 37.4 °F 87% 29.94 in 10.0 mi Calm Calm - N/A   Overcast
5:15 AM 41.0 °F - 37.4 °F 87% 29.94 in 10.0 mi Calm Calm - N/A   Mostly Cloudy
5:35 AM 41.0 °F - 37.4 °F 87% 29.94 in 10.0 mi Calm Calm - N/A   Mostly Cloudy
5:55 AM 42.8 °F - 39.2 °F 87% 29.96 in 10.0 mi Calm Calm - N/A   Scattered Clouds
6:15 AM 42.8 °F - 41.0 °F 93% 29.98 in 10.0 mi Calm Calm - N/A   Mostly Cloudy
6:35 AM 41.0 °F - 39.2 °F 93% 29.99 in 10.0 mi Calm Calm - N/A   Scattered Clouds
6:55 AM 41.0 °F - 37.4 °F 87% 29.99 in 10.0 mi Calm Calm - N/A   Clear
7:15 AM 41.0 °F - 37.4 °F 87% 30.00 in 10.0 mi Calm Calm - N/A   Clear
7:35 AM 41.0 °F - 37.4 °F 87% 30.00 in 10.0 mi Calm Calm - N/A   Clear
7:55 AM 41.0 °F - 39.2 °F 93% 30.01 in 10.0 mi Calm Calm - N/A   Clear
8:15 AM 46.4 °F 43.5 °F 41.0 °F 81% 30.01 in 10.0 mi ENE 5.8 mph - N/A   Clear
8:35 AM 46.4 °F 44.3 °F 37.4 °F 71% 30.01 in 10.0 mi East 4.6 mph - N/A   Clear
8:55 AM 50.0 °F - 37.4 °F 62% 30.02 in 10.0 mi East 4.6 mph - N/A   Clear
9:15 AM 53.6 °F - 37.4 °F 54% 30.02 in 10.0 mi ENE 8.1 mph - N/A   Clear
9:35 AM 55.4 °F - 37.4 °F 51% 30.02 in 10.0 mi ENE 11.5 mph - N/A   Clear
9:55 AM 57.2 °F - 37.4 °F 48% 30.03 in 10.0 mi East 9.2 mph - N/A   Scattered Clouds
10:15 AM 60.8 °F - 35.6 °F 39% 30.03 in 10.0 mi East 9.2 mph - N/A   Scattered Clouds
10:35 AM 62.6 °F - 32.0 °F 32% 30.03 in 10.0 mi East 11.5 mph 17.3 mph N/A   Clear
10:55 AM 64.4 °F - 32.0 °F 30% 30.03 in 10.0 mi East 11.5 mph - N/A   Scattered Clouds
11:15 AM 68.0 °F - 32.0 °F 26% 30.03 in 10.0 mi East 10.4 mph - N/A   Clear
11:35 AM 66.2 °F - 32.0 °F 28% 30.02 in 10.0 mi East 6.9 mph - N/A   Scattered Clouds
11:55 AM 68.0 °F - 32.0 °F 26% 30.01 in 10.0 mi East 12.7 mph - N/A   Scattered Clouds
12:15 PM 69.8 °F - 32.0 °F 25% 30.01 in 10.0 mi East 9.2 mph - N/A   Clear
12:35 PM 71.6 °F - 32.0 °F 23% 29.99 in 10.0 mi East 9.2 mph 16.1 mph N/A   Clear
12:55 PM 71.6 °F - 30.2 °F 22% 30.00 in 10.0 mi East 3.5 mph - N/A   Scattered Clouds
1:15 PM 71.6 °F - 33.8 °F 25% 30.00 in 10.0 mi ESE 6.9 mph - N/A   Scattered Clouds
1:35 PM 71.6 °F - 35.6 °F 27% 29.98 in 10.0 mi South 4.6 mph - N/A   Clear
1:55 PM 73.4 °F - 37.4 °F 27% 29.96 in 10.0 mi East 3.5 mph - N/A   Scattered Clouds
2:15 PM 75.2 °F - 41.0 °F 29% 29.96 in 10.0 mi SE 6.9 mph - N/A   Scattered Clouds
2:35 PM 75.2 °F - 35.6 °F 24% 29.95 in 10.0 mi East 4.6 mph - N/A   Clear
2:55 PM 77.0 °F - 37.4 °F 24% 29.93 in 10.0 mi East 5.8 mph - N/A   Scattered Clouds
3:15 PM 77.0 °F - 35.6 °F 22% 29.93 in 10.0 mi Calm Calm - N/A   Scattered Clouds
3:35 PM 77.0 °F - 37.4 °F 24% 29.93 in 10.0 mi East 4.6 mph - N/A   Mostly Cloudy
3:55 PM 75.2 °F - 37.4 °F 25% 29.92 in 10.0 mi Calm Calm - N/A   Overcast
4:15 PM 75.2 °F - 41.0 °F 29% 29.92 in 10.0 mi Calm Calm - N/A   Overcast
4:35 PM 73.4 °F - 42.8 °F 33% 29.91 in 10.0 mi West 4.6 mph - N/A   Overcast
4:55 PM 71.6 °F - 44.6 °F 38% 29.91 in 10.0 mi West 3.5 mph - N/A   Overcast
5:15 PM 71.6 °F - 44.6 °F 38% 29.91 in 10.0 mi Calm Calm - N/A   Overcast
5:35 PM 71.6 °F - 44.6 °F 38% 29.92 in 10.0 mi Calm Calm - N/A   Overcast
5:55 PM 71.6 °F - 44.6 °F 38% 29.92 in 10.0 mi Calm Calm - N/A   Overcast
6:15 PM 69.8 °F - 44.6 °F 40% 29.93 in 10.0 mi Calm Calm - N/A   Overcast
6:35 PM 69.8 °F - 44.6 °F 40% 29.93 in 10.0 mi Calm Calm - N/A   Overcast
6:55 PM 69.8 °F - 48.2 °F 46% 29.94 in 10.0 mi Calm Calm - N/A Rain Rain
7:15 PM 64.4 °F - 55.4 °F 73% 29.94 in 10.0 mi Calm Calm - N/A   Overcast
7:35 PM 64.4 °F - 53.6 °F 68% 29.94 in 10.0 mi SSE 3.5 mph - N/A   Overcast
7:55 PM 64.4 °F - 51.8 °F 64% 29.95 in 10.0 mi Calm Calm - N/A   Overcast
8:15 PM 64.4 °F - 55.4 °F 73% 29.96 in 10.0 mi Calm Calm - N/A   Overcast
8:35 PM 64.4 °F - 53.6 °F 68% 29.96 in 10.0 mi Calm Calm - N/A   Overcast
8:55 PM 64.4 °F - 55.4 °F 73% 29.97 in 10.0 mi Calm Calm - N/A   Overcast
9:15 PM 64.4 °F - 53.6 °F 68% 29.97 in 10.0 mi ENE 3.5 mph - N/A   Overcast
9:35 PM 64.4 °F - 53.6 °F 68% 29.98 in 10.0 mi NE 4.6 mph - N/A   Overcast
9:55 PM 66.2 °F - 50.0 °F 56% 29.98 in 10.0 mi ENE 6.9 mph - N/A   Overcast
10:15 PM 64.4 °F - 48.2 °F 56% 29.98 in 10.0 mi East 8.1 mph - N/A   Overcast
10:35 PM 64.4 °F - 46.4 °F 52% 29.99 in 10.0 mi East 6.9 mph - N/A   Overcast
10:55 PM 64.4 °F - 46.4 °F 52% 29.99 in 10.0 mi East 6.9 mph - N/A   Overcast
11:15 PM 64.4 °F - 48.2 °F 56% 30.00 in 10.0 mi East 5.8 mph - N/A   Overcast
11:35 PM 62.6 °F - 50.0 °F 63% 30.00 in 10.0 mi East 3.5 mph - N/A   Overcast
11:55 PM 62.6 °F - 50.0 °F 63% 29.99 in 10.0 mi ENE 4.6 mph - N/A   Overcast